• Processing (Info)

  • MPEC 2013-R80 : 2013 RE6

    The following Minor Planet Electronic Circular may be linked-to from your own Web pages, but must not otherwise be redistributed electronically.

    A form allowing access to any MPEC is at the bottom of this page.


    Read MPEC 2013-R79 Read MPEC 2013-R81


    M.P.E.C. 2013-R80                                Issued 2013 Sept. 11, 13:58 UT
    
         The Minor Planet Electronic Circulars contain information on unusual
             minor planets and routine data on comets.  They are published
       on behalf of Commission 20 of the International Astronomical Union by the
              Minor Planet Center, Smithsonian Astrophysical Observatory,
                              Cambridge, MA 02138, U.S.A.
    
                 Prepared using the Tamkin Foundation Computer Network
    
                                  MPC@CFA.HARVARD.EDU
                URL https://www.minorplanetcenter.net/    ISSN 1523-6714
    
                                       2013 RE6
    
                               Revision to MPEC 2013-R31
    
    Additional Observations:
         K13R06E  C2001 10 18.11377 23 35 12.96 -06 49 40.8          20.1 RoER080644
         K13R06E  C2001 10 18.13529 23 35 11.33 -06 50 28.3          19.9 RoER080644
         K13R06E  C2001 10 18.18993 23 35 07.09 -06 52 28.3          20.2 RoER080644
         K13R06E  C2001 10 18.20012 23 35 06.27 -06 52 51.1          19.9 RoER080644
         K13R06E  C2001 10 19.22302 23 33 59.41 -07 29 27.6          20.8 RoER080644
         K13R06E  C2001 10 19.23310 23 33 58.55 -07 29 49.8          20.6 RoER080644
         K13R06E  C2001 10 19.24351 23 33 57.79 -07 30 10.2          20.8 RoER080644
    
    Observer details:
    644 Palomar Mountain/NEAT.  Observers E. F. Helin, S. Pravdo, K. Lawrence,
        M. Hicks, R. Thicksten.  Measurer A. Lowe.  1.2-m Schmidt + CCD.
    
    Orbital elements:
    2013 RE6                                                 Earth MOID = 0.1445 AU
    Epoch 2013 Nov. 4.0 TT = JDT 2456600.5                  MPC
    M 221.18330              (2000.0)            P               Q
    n   0.90288469     Peri.  344.82854     -0.99791437     -0.05147912
    a   1.0601839      Node   192.41752     +0.05905839     -0.97165323
    e   0.2000859      Incl.   10.43478     -0.02605779     -0.23073772
    P   1.09           H   21.4           G   0.15           U   5
    Residuals in seconds of arc
    011018 644  0.3+  0.2+    130903 H21  0.3-  0.1+    130907 H21  0.1-  0.1+
    011018 644  0.4+  0.1+    130903 H21  0.2-  0.1+    130907 H21  0.1+  0.2-
    011018 644  0.1+  0.0     130903 H36  0.4+  0.1+    130907 H21  0.5+  0.7-
    011018 644  0.3-  0.5-    130903 H36  0.1+  0.2+    130907 H21  0.3+  0.9-
    011019 644  1.0+  0.2+    130903 H36  0.2+  0.3-    130909 H21  0.3-  0.2-
    011019 644  0.8-  0.7-    130904 291  0.0   0.2+    130909 H21  0.1-  0.2+
    011019 644  0.8-  0.8+    130904 291  0.0   0.3+    130909 H21  0.0   0.3+
    130902 F51  0.0   0.2+    130904 291  0.3+  0.2+    130909 H21  0.2-  0.2+
    130902 F51  0.1-  0.4-    130905 H21  0.2-  0.1+    130910 H21  0.2+  0.1-
    130903 H21  0.1-  0.1+    130905 H21  0.2-  0.2-    130910 H21  0.1-  0.3+
    130903 H21  0.3-  0.2+    130905 H21  0.2+  0.0
    
    Ephemeris:
    2013 RE6                 a,e,i = 1.06, 0.20, 10                  q = 0.8481
    Date    TT    R. A. (2000) Decl.     Delta      r     Elong.  Phase     V
    2013 08 12    00 32 23.6 +27 00 00   0.3879  1.2455   118.4    45.7    21.6
    ...
    2013 08 27    00 24 56.5 +24 36 39   0.3295  1.2623   134.2    35.0    20.9
    ...
    2013 09 04    00 14 29.7 +21 41 35   0.3032  1.2680   144.6    27.4    20.5
    ...
    2013 09 10    00 04 01.3 +18 35 08   0.2878  1.2707   153.3    20.9    20.2
    2013 09 11    00 02 06.4 +17 59 26   0.2857  1.2710   154.7    19.7    20.2
    2013 09 12    00 00 09.2 +17 22 29   0.2837  1.2713   156.2    18.6    20.1
    ...
    2013 09 18    23 47 54.5 +13 16 58   0.2751  1.2723   164.7    12.0    19.8
    ...
    2013 09 26    23 31 30.3 +07 06 25   0.2731  1.2715   168.6     9.0    19.7
    ...
    2013 10 11    23 07 58.1 -04 02 47   0.2992  1.2638   148.8    24.2    20.4
    
    A. U. Tomatic                (C) Copyright 2013 MPC           M.P.E.C. 2013-R80
    

    Read MPEC 2013-R79 Read MPEC 2013-R81


    MPEC number:

    Enter an MPEC number in one of the following forms:

    • 1997-B01 (the full form)
    • J97B01 (the packed version of the full form)
    • B01 (the abbreviated form)